LiveATC.Net - Listen to live air traffic control over the Internet!


ICAO: OPKC  IATA: KHI   Airport: Jinnah International Airport
City: Karachi
Country: Pakistan   Continent: Asia
OPKC METAR Weather: OPKC 262055Z 23010KT 6000 BKN020 29/23 Q1003 NOSIG
OPKC Flight Activity (FlightAware)
OPKC Gnd/Twr/Radar
Feed Status: DOWN
Last heard on: 2016-07-22 09:46:03 (4 days 12 hours 5 minutes ago)
OPKC Gnd/Twr/Radar Audio Archives
FacilityFrequency
Karachi Ground121.600
Karachi Radar125.500
Karachi Tower118.300


NOTICE

Unauthorized use prohibited. See LiveATC.net Terms of Service


Find LiveATC Audio Streams


Airport/ARTCC Code

Frequency
(e.g., 124.400, 128.75)
Site-wide search

Browse LiveATC Feeds
LiveATC Coverage Map
Top 50 LiveATC Feeds
Bad Weather Areas

LiveATC FAQ
Offer a LiveATC Feed
Contact LiveATC.net
Press Inquiries

LiveATC on iPhone
LiveATC on Android

Windows Phone
Windows 8/10

LiveATC Mobile
(Mobile browser)

ATC Audio Archives
Interesting Recordings

LiveATC Forums


Home Page
About LiveATC.net
Make a Donation
LiveATC Store

Terms of Use
Privacy Policy

Canadian Air Freqs

AIRMETs/SIGMETs

FAA Airport Status
Nat'l Airspace Status
Arrival Demand Charts


Server Software By:
Icecast.org
Liquidsoap